[[{"header":{"parameterUnit":"m.s-1","parameterCategory":1,"la1":30.2991,"la2":30.254,"lo1":-89.0895,"lo2":-89.0444,"dy":0.0017,"dx":0.0017,"nx":28,"ny":28,"refTime":"2023-04-05T15:00:00:Z","depth":0,"parameterNumber":2,"parameterNumberName":"U-component_of_WINDS"},"data":[0,0,0,0,0,0,0,0,0,0,0,0,0,0,0,0,0,0,0,0,0,0,0,0,0,0,0,0,0,0,0,0,0,0,0,0,0,0,0,0,0,0,0,0,0,0,0,0,0,0,0,0,0,0,0,0,0,0,-3.7753,-3.7754,0,-3.7799,-3.78,-3.78,-3.7757,-3.7755,-3.7754,-3.7752,-3.7797,-3.78,-3.7803,0,0,0,0,0,0,0,0,0,0,0,0,0,-3.7629,-3.7631,-3.7753,-3.7754,-3.7755,-3.7799,-3.78,-3.78,-3.7757,-3.7755,-3.7753,-3.7751,-3.7796,-3.78,-3.7803,0,0,0,0,0,0,0,0,0,0,0,0,0,-3.7679,-3.7632,-3.7753,-3.7739,-3.7738,-3.7799,-3.78,-3.78,-3.7758,-3.7755,-3.7753,-3.775,-3.7795,-3.7799,-3.7803,-3.7881,0,0,-3.7816,-3.7818,0,0,0,0,0,0,0,0,-3.7677,-3.7684,-3.774,-3.774,-3.7739,-3.777,-3.7772,-3.7827,-3.7759,-3.775,-3.7752,-3.7749,-3.779,-3.7795,-3.7809,-3.7883,-3.7885,-3.7817,-3.7819,-3.7821,-3.7822,0,0,0,0,0,0,0,-3.7673,-3.7682,-3.7771,-3.7741,-3.774,-3.773,-3.7734,-3.7782,-3.7784,-3.7751,-3.7748,-3.7754,-3.7789,-3.7805,-3.7809,-3.7885,-3.7817,-3.782,-3.7823,-3.7824,-3.8026,-3.8029,0,0,0,0,0,0,-3.7671,-3.7679,-3.777,-3.7773,-3.7701,-3.7734,-3.7739,-3.7762,-3.7783,-3.7784,-3.7756,-3.7752,-3.7799,-3.7805,-3.7811,-3.7903,-3.7821,-3.7825,-3.7827,-3.8023,-3.8027,-3.803,0,0,0,0,0,0,-3.7669,-3.768,-3.7768,-3.7725,-3.7736,-3.7739,-3.7766,-3.7765,-3.778,-3.7787,-3.7787,-3.7772,-3.7797,-3.7805,-3.7864,-3.7904,-3.7827,-3.7831,-3.802,-3.8024,-3.8028,-3.8087,0,0,0,0,0,0,-3.7665,-3.7679,-3.7709,-3.7726,-3.7738,-3.7821,-3.7768,-3.7767,-3.7788,-3.7782,-3.7802,-3.7803,-3.7796,-3.7858,-3.7868,-3.7908,-3.7834,-3.8016,-3.8022,-3.8027,-3.8081,-3.8093,-3.8102,0,0,0,0,0,-3.7661,-3.7723,-3.771,-3.7721,-3.7775,-3.7823,-3.783,-3.7821,-3.7791,-3.782,-3.7825,-3.7802,-3.7898,-3.7864,-3.7875,-3.7917,-3.8014,-3.802,-3.8027,-3.8077,-3.809,-3.8102,0,0,0,0,0,0,-3.7708,-3.7725,-3.7711,-3.778,-3.7801,-3.7816,-3.7852,-3.7836,-3.7864,-3.7858,-3.7846,-3.785,-3.7913,-3.7921,-3.7883,-3.7993,-3.7951,-3.796,-3.7985,-3.7998,-3.8009,-3.8005,-3.7837,0,0,0,0,0,-3.7727,-3.7765,-3.7777,-3.7837,-3.7848,-3.7849,-3.787,-3.7861,-3.7882,-3.789,-3.7899,-3.7919,-3.7954,-3.7977,-3.8009,-3.8083,-3.8087,-3.8118,-3.8128,-3.8136,-3.8144,-3.8183,-3.8197,-3.8051,-3.8051,-3.8051,0,0,-3.7766,-3.7779,-3.7804,-3.7847,-3.7862,-3.7901,-3.7856,-3.79,-3.7929,-3.7896,-3.7952,-3.796,-3.7982,-3.8049,-3.8079,-3.8058,-3.8185,-3.8145,-3.8151,-3.8154,-3.8191,-3.8205,-3.8218,-3.8055,-3.8054,-3.8054,0,0,-3.7856,-3.7871,-3.7922,-3.7938,-3.7962,-3.7962,-3.7975,-3.7993,-3.7997,-3.8054,-3.803,-3.8065,-3.8125,-3.8142,-3.8158,-3.8257,-3.8236,-3.8268,-3.8322,-3.8361,-3.8372,-3.8382,-3.8417,-3.843,-3.8276,-3.8276,-3.8276,0,-3.79,-3.7959,-3.795,-3.7996,-3.8016,-3.799,-3.8042,-3.8058,-3.8091,-3.8105,-3.8081,-3.8157,-3.817,-3.824,-3.8265,-3.8279,-3.8293,-3.8265,-3.8371,-3.8381,-3.8391,-3.8424,-3.8437,-3.828,-3.8279,-3.8279,-3.8278,0,-3.8013,-3.8054,-3.8093,-3.8126,-3.8151,-3.8199,-3.8198,-3.8223,-3.8214,-3.8217,-3.8275,-3.829,-3.8325,-3.8342,-3.8332,-3.8411,-3.8398,-3.8373,-3.833,-3.8408,-3.8439,-3.8452,-3.8285,-3.8283,-3.8282,-3.8281,0,0,-3.8131,-3.8161,-3.8175,-3.819,-3.8215,-3.8247,-3.8295,-3.833,-3.8352,-3.8377,-3.8416,-3.8469,-3.8446,-3.8465,-3.8458,-3.8492,-3.8569,-3.8463,-3.8464,-3.8482,-3.8657,-3.8674,-3.8689,-3.8557,-3.8559,-3.8561,-3.8655,0,-3.8222,-3.8305,-3.8299,-3.8378,-3.8416,-3.8393,-3.8434,-3.8454,-3.8459,-3.8492,-3.8497,-3.8534,-3.8502,-3.8514,-3.8547,-3.8553,-3.8604,-3.8546,-3.8593,-3.8594,-3.8586,-3.8705,-3.8723,-3.881,-3.8667,-3.8669,-3.867,0,-3.8337,-3.8366,-3.8449,-3.8469,-3.8485,-3.8522,-3.8555,-3.8587,-3.8609,-3.861,-3.8633,-3.862,-3.8668,-3.8626,-3.8692,-3.8653,-3.8672,-3.8678,-3.8681,-3.8684,-3.8635,-3.8709,-3.8837,-3.885,-3.8689,-3.8688,-3.8686,0,-3.8414,-3.8474,-3.8531,-3.8545,-3.8571,-3.8598,-3.8609,-3.863,-3.8651,-3.868,-3.8694,-3.8728,-3.8746,-3.8773,-3.8769,-3.8739,-3.8837,-3.8794,-3.8838,-3.8838,-3.8858,-3.8856,-3.899,-3.8873,-3.8873,-3.8873,-3.8873,0,-3.8514,-3.8565,-3.8567,-3.8601,-3.8658,-3.8652,-3.8708,-3.8717,-3.8736,-3.8772,-3.8754,-3.8789,-3.8783,-3.8818,-3.8816,-3.8871,-3.888,-3.8881,-3.888,-3.8882,-3.8881,-3.8892,-3.8886,-3.8876,-3.8876,-3.8875,-3.8874,0,-3.8609,-3.8612,-3.8672,-3.8693,-3.8699,-3.874,-3.8756,-3.879,-3.8794,-3.884,-3.885,-3.8857,-3.8896,-3.8897,-3.8942,-3.8941,-3.9008,-3.9,-3.9,-3.8998,-3.9042,-3.9037,-3.9185,-3.9204,-3.9077,-3.9078,-3.9079,0,-3.8672,-3.8711,-3.8735,-3.8759,-3.8773,-3.881,-3.8833,-3.8829,-3.8853,-3.8883,-3.8913,-3.8951,-3.8981,-3.9046,-3.9054,-3.9089,-3.9081,-3.9131,-3.9086,-3.9087,-3.9081,-3.9078,-3.9081,-3.9139,-3.9141,-3.9142,-3.9143,0,-3.8783,-3.8783,-3.8816,-3.8851,-3.8879,-3.8906,-3.8931,-3.8951,-3.895,-3.8978,-3.9019,-3.9043,-3.909,-3.9128,-3.9162,-3.9174,-3.9158,-3.9157,-3.9169,-3.9171,-3.9168,-3.9169,-3.9022,-3.9153,-3.9152,-3.9151,-3.9151,-3.915,-3.8862,-3.8896,-3.8919,-3.8957,-3.8976,-3.9,-3.9032,-3.9041,-3.9075,-3.9113,-3.911,-3.9155,-3.9178,-3.9222,-3.9237,-3.9273,-3.9255,-3.9272,-3.9277,-3.928,-3.9285,-3.9165,-3.9279,-3.9279,-3.9278,-3.9278,-3.9278,0,-3.8971,-3.8985,-3.9021,-3.9057,-3.9087,-3.9072,-3.9099,-3.9125,-3.9165,-3.9188,-3.9219,-3.9266,-3.9304,-3.9316,-3.9352,-3.9378,-3.9372,-3.9388,-3.9385,-3.9388,-3.9299,-3.9284,-3.9392,-3.9392,-3.9392,-3.9392,-3.9392,-3.9392,-3.9031,-3.9087,-3.909,-3.9156,-3.9169,-3.9214,-3.9231,-3.9253,-3.9271,-3.9325,-3.9357,-3.9365,-3.9384,-3.9422,-3.9455,-3.9458,-3.9472,-3.949,-3.949,-3.9406,-3.9394,-3.9383,-3.9369,-3.9494,-3.9494,-3.9576,-3.9577,-3.9577]},{"header":{"parameterUnit":"m.s-1","parameterCategory":1,"la1":30.2991,"la2":30.254,"lo1":-89.0895,"lo2":-89.0444,"dy":0.0017,"dx":0.0017,"nx":28,"ny":28,"refTime":"2023-04-05T15:00:00:Z","depth":0,"parameterNumber":3,"parameterNumberName":"V-component_of_WINDS"},"data":[0,0,0,0,0,0,0,0,0,0,0,0,0,0,0,0,0,0,0,0,0,0,0,0,0,0,0,0,0,0,0,0,0,0,0,0,0,0,0,0,0,0,0,0,0,0,0,0,0,0,0,0,0,0,0,0,0,0,1.0343,1.0343,0,1.04,1.0401,1.0402,1.0433,1.0433,1.0433,1.0433,1.0492,1.0493,1.0495,0,0,0,0,0,0,0,0,0,0,0,0,0,1.0261,1.0263,1.0343,1.0343,1.0344,1.04,1.0401,1.0402,1.0433,1.0433,1.0433,1.0433,1.0491,1.0493,1.0495,0,0,0,0,0,0,0,0,0,0,0,0,0,1.0305,1.0263,1.0342,1.0366,1.0369,1.04,1.0401,1.0402,1.0433,1.0433,1.0433,1.0433,1.0491,1.0493,1.0495,1.0507,0,0,1.0502,1.0503,0,0,0,0,0,0,0,0,1.0303,1.0308,1.0362,1.0365,1.0368,1.041,1.0394,1.0437,1.0433,1.0409,1.0433,1.0433,1.0464,1.0469,1.0479,1.0509,1.0512,1.0502,1.0503,1.0504,1.0505,0,0,0,0,0,0,0,1.03,1.0306,1.0365,1.0363,1.0366,1.0375,1.0381,1.0402,1.0435,1.0411,1.0413,1.042,1.0466,1.0477,1.0481,1.0513,1.0502,1.0504,1.0505,1.0506,1.0558,1.0558,0,0,0,0,0,0,1.0293,1.0303,1.0364,1.0367,1.0335,1.0376,1.0383,1.0396,1.0435,1.0441,1.0419,1.0421,1.0473,1.0478,1.0483,1.0501,1.0504,1.0507,1.0508,1.0558,1.0558,1.0558,0,0,0,0,0,0,1.0291,1.0298,1.0361,1.0336,1.0345,1.0377,1.0391,1.0397,1.0408,1.0442,1.0448,1.0425,1.0473,1.048,1.0501,1.0503,1.0508,1.051,1.0558,1.0558,1.0558,1.0536,0,0,0,0,0,0,1.0288,1.0297,1.0301,1.0336,1.0346,1.0378,1.0391,1.0398,1.0412,1.0414,1.0448,1.0454,1.0474,1.0498,1.0503,1.0507,1.0511,1.0558,1.0558,1.0558,1.0536,1.0535,1.0534,0,0,0,0,0,1.0285,1.0292,1.0301,1.0308,1.0352,1.0378,1.0384,1.0407,1.0412,1.0417,1.0439,1.0453,1.0502,1.05,1.0506,1.051,1.0558,1.0558,1.0558,1.0537,1.0535,1.0534,0,0,0,0,0,0,1.0255,1.0296,1.0307,1.0325,1.0348,1.0383,1.039,1.0404,1.0425,1.0427,1.0455,1.0462,1.0481,1.0498,1.0494,1.0525,1.0532,1.0533,1.0513,1.0512,1.0511,1.0506,1.0513,0,0,0,0,0,1.0251,1.0268,1.0303,1.0316,1.0327,1.0356,1.0368,1.0385,1.0409,1.0419,1.0442,1.0466,1.0487,1.05,1.0521,1.0539,1.0548,1.0545,1.0544,1.0543,1.0544,1.0556,1.0556,1.0559,1.0559,1.0559,0,0,1.0241,1.0266,1.0275,1.031,1.033,1.0348,1.0364,1.0382,1.0396,1.0422,1.0444,1.0462,1.049,1.051,1.052,1.0525,1.0545,1.0543,1.0541,1.0543,1.0557,1.0556,1.0556,1.0559,1.0559,1.0559,0,0,1.0234,1.0254,1.0267,1.0287,1.0317,1.0337,1.0341,1.0374,1.0388,1.041,1.0431,1.0448,1.0484,1.0504,1.0519,1.0522,1.0536,1.0528,1.0521,1.0534,1.0533,1.0533,1.0536,1.0537,1.0529,1.0529,1.0529,0,1.0219,1.0247,1.0272,1.029,1.0306,1.0331,1.0346,1.0364,1.0399,1.0409,1.0414,1.0461,1.0481,1.0508,1.0509,1.0519,1.0525,1.0524,1.0531,1.0532,1.0532,1.0535,1.0536,1.0528,1.0528,1.0528,1.0528,0,1.0228,1.0247,1.0254,1.0289,1.0305,1.0321,1.035,1.0364,1.038,1.04,1.0424,1.045,1.0478,1.0485,1.05,1.0515,1.0517,1.0526,1.0533,1.053,1.0534,1.0535,1.0526,1.0527,1.0527,1.0527,0,0,1.0201,1.0252,1.0254,1.0271,1.0307,1.0323,1.0341,1.0369,1.0381,1.0405,1.0422,1.0453,1.0463,1.0479,1.0497,1.0508,1.0511,1.0516,1.0517,1.0515,1.0531,1.0524,1.0525,1.0521,1.0521,1.0522,1.0529,0,1.02,1.0233,1.0258,1.0283,1.0302,1.0328,1.0344,1.0368,1.0388,1.0408,1.043,1.0452,1.0462,1.0473,1.0485,1.0508,1.0515,1.0508,1.0538,1.0539,1.0531,1.0527,1.0519,1.0525,1.053,1.0531,1.0531,0,1.0202,1.0227,1.0253,1.029,1.0299,1.0313,1.0342,1.0361,1.039,1.0404,1.0424,1.0443,1.0464,1.047,1.0502,1.0496,1.051,1.0524,1.0525,1.0529,1.0535,1.0532,1.0527,1.0528,1.0533,1.0533,1.0533,0,1.0182,1.0222,1.0243,1.0257,1.03,1.0309,1.0328,1.0357,1.0373,1.0399,1.041,1.0438,1.0453,1.0474,1.0501,1.0502,1.053,1.0538,1.0543,1.0542,1.0548,1.0547,1.0546,1.0555,1.0555,1.0555,1.0555,0,1.0178,1.0194,1.0235,1.0249,1.0268,1.0297,1.0315,1.0336,1.0362,1.0381,1.0404,1.0421,1.0455,1.0476,1.0497,1.0521,1.0527,1.054,1.0546,1.0538,1.0537,1.0548,1.0549,1.0556,1.0555,1.0555,1.0555,0,1.0159,1.0187,1.0213,1.0252,1.0262,1.0275,1.0309,1.0323,1.0345,1.0369,1.0376,1.0411,1.0438,1.0466,1.0502,1.0517,1.054,1.0547,1.053,1.0533,1.0538,1.0537,1.0545,1.0548,1.0554,1.0554,1.0553,0,1.0154,1.0167,1.0209,1.0223,1.0241,1.0264,1.0281,1.0311,1.0328,1.0364,1.0375,1.0404,1.0429,1.0471,1.0499,1.0528,1.0537,1.0537,1.0541,1.0534,1.0538,1.0537,1.054,1.0536,1.0536,1.0536,1.0535,0,1.0145,1.0159,1.0183,1.0212,1.0232,1.0257,1.0282,1.0293,1.0328,1.0347,1.0375,1.0394,1.0433,1.0462,1.0494,1.0514,1.0531,1.0534,1.0537,1.053,1.0521,1.0527,1.0528,1.0534,1.0534,1.0534,1.0534,1.0534,1.0134,1.0147,1.0179,1.0206,1.0228,1.0252,1.0269,1.0294,1.0318,1.0352,1.0368,1.0397,1.0429,1.0474,1.0494,1.0518,1.0522,1.0526,1.0528,1.0528,1.0527,1.0517,1.0523,1.0523,1.0524,1.0524,1.0524,0,1.0126,1.0149,1.0173,1.0209,1.023,1.0245,1.0275,1.0292,1.0317,1.0345,1.037,1.0403,1.0432,1.0464,1.0496,1.0509,1.0517,1.0516,1.0515,1.052,1.052,1.0515,1.0508,1.0508,1.0508,1.0508,1.0508,1.0508,1.0125,1.0149,1.0168,1.0205,1.0227,1.0256,1.0272,1.0295,1.0318,1.0354,1.0379,1.04,1.043,1.0464,1.0492,1.0501,1.0512,1.0508,1.0519,1.0519,1.052,1.0521,1.0516,1.051,1.051,1.0518,1.0518,1.0518]}]]